This demonstration page uses our WeatherBlox Daily Observations layout. Learn more.

Left ArrowRight Arrow

Hourly Observations for December 29, 2021

Temp ( °F °C ) Dew Point ( °F °C ) Humidity (%) Winds ( mph kmh ) Pressure ( in mb ) Visibility ( mi km ) Precip ( " mm )
12:51 am 00:51 Cloudy 42 5.6 35 1.7 76 76 Calm 29.75 1007 10 16 0.00 0.00
1:51 am 01:51 Mostly Cloudy 42 5.6 35 1.7 76 76 Calm 29.77 1008 10 16 0.00 0.00
2:51 am 02:51 Partly Cloudy 41 5 35 1.7 79 79 Calm 29.77 1008 10 16 0.00 0.00
3:51 am 03:51 Cloudy 44 6.7 36 2.2 73 73 W 3 6 29.79 1009 10 16 0.00 0.00
4:51 am 04:51 Partly Cloudy 41 5 35 1.7 79 79 Calm 29.80 1009 10 16 0.00 0.00
5:51 am 05:51 Mostly Cloudy 35 1.7 33 0.6 93 93 Calm 29.83 1010 10 16 0.00 0.00
6:51 am 06:51 Cloudy 38 3.3 36 2.2 93 93 ENE 6 9 29.85 1011 10 16 0.00 0.00
7:51 am 07:51 Cloudy 40 4.4 38 3.3 93 93 E 7 11 29.87 1011 10 16 0.00 0.00
8:51 am 08:51 Mostly Cloudy 45 7.2 39 3.9 80 80 E 7 11 29.88 1012 10 16 0.00 0.00
9:25 am 09:25 Cloudy 47 8.3 39 3.9 74 74 NW 7 11 29.94 1014 10 16 0.00 0.00
9:51 am 09:51 Cloudy 47 8.3 39 3.9 74 74 Calm 29.91 1013 10 16 0.00 0.00
10:01 am 10:01 Cloudy 48 8.9 39 3.9 71 71 NW 3 6 29.95 1014 10 16 0.00 0.00
10:51 am 10:51 Mostly Cloudy 49 9.4 38 3.3 66 66 Calm 29.92 1013 10 16 0.00 0.00
11:08 am 11:08 Cloudy 52 11 39 4 62 62 NW 10 17 29.93 1014 10 16 0.00 0.00
11:40 am 11:40 Mostly Cloudy 50 10 39 3.9 66 66 WNW 9 15 29.93 1014 10 16 0.00 0.00
11:51 am 11:51 Mostly Sunny 51 10.6 39 3.9 64 64 WNW 10 17 29.91 1013 10 16 0.00 0.00
12:51 pm 12:51 Mostly Sunny 52 11.1 39 3.9 61 61 NW 8 13 29.88 1012 10 16 0.00 0.00
1:51 pm 13:51 Sunny 52 11.1 39 3.9 61 61 W 9 15 29.87 1011 10 16 0.00 0.00
2:51 pm 14:51 Mostly Cloudy 51 10.6 39 3.9 64 64 undefined N/A 29.88 1012 10 16 0.00 0.00
3:51 pm 15:51 Mostly Cloudy 53 11.7 39 3.9 59 59 WNW 9 15 29.87 1012 10 16 0.00 0.00
4:51 pm 16:51 Sunny 50 10 40 4.4 68 68 WNW 9 15 29.88 1012 10 16 0.00 0.00
5:51 pm 17:51 Clear 46 7.8 40 4.4 79 79 W 10 17 29.91 1013 10 16 0.00 0.00
6:51 pm 18:51 Clear 43 6.1 40 4.4 89 89 WNW 9 15 29.93 1013 10 16 0.00 0.00
7:51 pm 19:51 Clear 41 5 39 3.9 93 93 Calm 29.94 1014 10 16 0.00 0.00
8:51 pm 20:51 Clear 40 4.4 39 3.9 97 97 Calm 29.95 1014 10 16 0.00 0.00
9:51 pm 21:51 Clear 38 3.3 38 3.3 100 100 NE 8 13 29.96 1015 10 16 0.00 0.00
10:51 pm 22:51 Clear 36 2.2 36 2.2 100 100 E 8 13 29.96 1015 10 16 0.00 0.00
11:51 pm 23:51 Clear 36 2.2 36 2.2 100 100 E 3 6 29.96 1015 10 16 0.00 0.00

Powered by AerisWeather